sat.trackr.live / text

‹ back to catalog

STARLINK-36641

NORAD 67589 · 2026-018A

PAYLOAD ACTIVE UNKNOWN

§ Identity

Operator
Country
US
Launch date
2026-01-29
Launch site
AFWTR
Launch vehicle
Mass (kg)
RCS (m²)

Purposes: comms

External: N2YO · Heavens-Above · Gunter

§ Orbital elements

Epoch: 2026-05-25T02:35:35.602080Z

Period
93.91 min
Inclination
97.2840°
Eccentricity
0.0001427
Mean motion
15.33462271 rev/d
Perigee alt
464.5 km
Apogee alt
466.5 km
Semi-major
6,843.6 km
B*
9.7110e-4
RAAN
210.2056°
Arg perigee
87.2468°
Mean anomaly
272.8938°
Rev number
1,904

§ Raw data

STARLINK-366411 67589U 26018A   26145.10805095  .00031424  00000+0  97110-3 0  99922 67589  97.2840 210.2056 0001427  87.2468 272.8938 15.33462271 19049

JSON: /api/v1/satellites/67589 · /tle

For live sub-satellite position, see the globe view (requires WebGL).

§ Visibility from observer

Set your observer location to see the next 7 days of passes ≥ 10°. The values pass through the URL so the page stays shareable.

No JS? Fill the form by hand. The geolocation button needs JavaScript.